| time (UTC) | temp C | wind direction | speed KPH | gust KPH | rain 1hr cm | rain 24hr cm | rain mn cm | humidity % | barometer mb |
| 20260510225306 | 23 | 206 | 0.0 | 0.0 | 0.00 | 0.00 | 0.00 | 79 | 1017.9 |
| 20260510224806 | 23 | 207 | 0.0 | 0.0 | 0.00 | 0.00 | 0.00 | 79 | 1017.7 |
| 20260510224044 | 23 | 207 | 0.0 | 0.0 | 0.00 | 0.00 | 0.00 | 78 | 1017.7 |
| 20260510223544 | 23 | 207 | 0.0 | 0.0 | 0.00 | 0.00 | 0.00 | 77 | 1017.8 |
| 20260510223044 | 25 | 207 | 0.0 | 0.0 | 0.00 | 0.00 | 0.00 | 76 | 1017.7 |
| 20260510222544 | 25 | 226 | 0.0 | 1.6 | 0.00 | 0.00 | 0.00 | 73 | 1017.8 |
| 20260510222044 | 26 | 243 | 0.0 | 3.2 | 0.00 | 0.00 | 0.00 | 71 | 1017.5 |
| 20260510221544 | 26 | 225 | 0.0 | 1.6 | 0.00 | 0.00 | 0.00 | 70 | 1017.4 |
| 20260510221044 | 26 | 239 | 0.0 | 3.2 | 0.00 | 0.00 | 0.00 | 67 | 1017.6 |
| 20260510220805 | 26 | 253 | 1.6 | 4.8 | 0.00 | 0.00 | 0.00 | 64 | 1017.4 |
| 20260510220029 | 26 | 239 | 0.0 | 1.6 | 0.00 | 0.00 | 0.00 | 68 | 1017.5 |
| 20260510215529 | 26 | 232 | 1.6 | 3.2 | 0.00 | 0.00 | 0.00 | 64 | 1017.3 |
| 20260510215029 | 27 | 258 | 0.0 | 3.2 | 0.00 | 0.00 | 0.00 | 65 | 1017.4 |
| 20260510214529 | 27 | 258 | 0.0 | 1.6 | 0.00 | 0.00 | 0.00 | 66 | 1017.3 |
| 20260510214029 | 26 | 205 | 0.0 | 1.6 | 0.00 | 0.00 | 0.00 | 65 | 1017.5 |
| 20260510213735 | 26 | 243 | 1.6 | 1.6 | 0.00 | 0.00 | 0.00 | 66 | 1017.4 |
| 20260510213014 | 26 | 234 | 1.6 | 3.2 | 0.00 | 0.00 | 0.00 | 66 | 1017.4 |
| 20260510212736 | 27 | 244 | 1.6 | 3.2 | 0.00 | 0.00 | 0.00 | 68 | 1017.3 |
| 20260510211959 | 26 | 254 | 1.6 | 3.2 | 0.00 | 0.00 | 0.00 | 67 | 1017.3 |
| 20260510211444 | 26 | 249 | 1.6 | 3.2 | 0.00 | 0.00 | 0.00 | 67 | 1017.6 |
| 20260510210944 | 25 | 222 | 1.6 | 6.4 | 0.00 | 0.00 | 0.00 | 68 | 1017.4 |
| 20260510210444 | 26 | 254 | 3.2 | 3.2 | 0.00 | 0.00 | 0.00 | 66 | 1017.5 |
| 20260510205930 | 27 | 266 | 1.6 | 1.6 | 0.00 | 0.00 | 0.00 | 63 | 1017.2 |
| 20260510205649 | 26 | 251 | 1.6 | 1.6 | 0.00 | 0.00 | 0.00 | 65 | 1017.4 |
| 20260510205415 | 27 | 231 | 0.0 | 1.6 | 0.00 | 0.00 | 0.00 | 63 | 1017.4 |
| 20260510204430 | 27 | 209 | 1.6 | 3.2 | 0.00 | 0.00 | 0.00 | 67 | 1017.5 |
| 20260510203930 | 26 | 252 | 0.0 | 1.6 | 0.00 | 0.00 | 0.00 | 66 | 1017.6 |
| 20260510203650 | 26 | 263 | 1.6 | 3.2 | 0.00 | 0.00 | 0.00 | 67 | 1017.6 |
| 20260510202930 | 26 | 265 | 1.6 | 1.6 | 0.00 | 0.00 | 0.00 | 72 | 1017.4 |
| 20260510202430 | 26 | 266 | 1.6 | 3.2 | 0.00 | 0.00 | 0.00 | 71 | 1017.5 |
| 20260510201915 | 26 | 236 | 0.0 | 1.6 | 0.00 | 0.00 | 0.00 | 71 | 1017.7 |
| 20260510201414 | 25 | 241 | 0.0 | 1.6 | 0.00 | 0.00 | 0.00 | 71 | 1017.8 |
| 20260510201134 | 25 | 289 | 3.2 | 4.8 | 0.00 | 0.00 | 0.00 | 69 | 1017.6 |
| 20260510200414 | 26 | 174 | 1.6 | 1.6 | 0.00 | 0.00 | 0.00 | 66 | 1017.7 |
| 20260510195900 | 26 | 250 | 0.0 | 4.8 | 0.00 | 0.00 | 0.00 | 65 | 1017.7 |
| 20260510195400 | 26 | 298 | 1.6 | 3.2 | 0.00 | 0.00 | 0.00 | 65 | 1017.9 |
| 20260510194900 | 26 | 240 | 3.2 | 6.4 | 0.00 | 0.00 | 0.00 | 65 | 1017.7 |
| 20260510194345 | 25 | 239 | 1.6 | 3.2 | 0.00 | 0.00 | 0.00 | 69 | 1017.9 |
| 20260510193845 | 26 | 222 | 3.2 | 3.2 | 0.00 | 0.00 | 0.00 | 66 | 1017.9 |
| 20260510193604 | 26 | 244 | 1.6 | 3.2 | 0.00 | 0.00 | 0.00 | 70 | 1018.0 |
| 20260510192845 | 25 | 232 | 0.0 | 1.6 | 0.00 | 0.00 | 0.00 | 67 | 1017.9 |
| 20260510192344 | 26 | 300 | 1.6 | 3.2 | 0.00 | 0.00 | 0.00 | 69 | 1017.8 |
| 20260510191845 | 25 | 222 | 3.2 | 6.4 | 0.00 | 0.00 | 0.00 | 71 | 1018.0 |
| 20260510191344 | 25 | 224 | 1.6 | 4.8 | 0.00 | 0.00 | 0.00 | 70 | 1018.0 |
| 20260510190844 | 25 | 154 | 3.2 | 3.2 | 0.00 | 0.00 | 0.00 | 68 | 1018.1 |
| 20260510190344 | 25 | 227 | 3.2 | 4.8 | 0.00 | 0.00 | 0.00 | 69 | 1018.0 |
| 20260510185830 | 24 | 212 | 1.6 | 1.6 | 0.00 | 0.00 | 0.00 | 72 | 1018.4 |
| 20260510185330 | 23 | 247 | 1.6 | 1.6 | 0.00 | 0.00 | 0.00 | 73 | 1018.4 |
| 20260510184829 | 23 | 250 | 0.0 | 1.6 | 0.00 | 0.00 | 0.00 | 76 | 1018.6 |
| 20260510184330 | 22 | 250 | 0.0 | 0.0 | 0.00 | 0.00 | 0.00 | 79 | 1018.6 |
| 20260510183830 | 23 | 173 | 3.2 | 4.8 | 0.00 | 0.00 | 0.00 | 75 | 1018.7 |
| 20260510183330 | 25 | 255 | 1.6 | 3.2 | 0.00 | 0.00 | 0.00 | 72 | 1018.5 |
| 20260510182829 | 24 | 250 | 0.0 | 1.6 | 0.00 | 0.00 | 0.00 | 74 | 1018.6 |
| 20260510182315 | 24 | 258 | 3.2 | 3.2 | 0.00 | 0.00 | 0.00 | 73 | 1018.7 |
| 20260510182259 | 25 | 251 | 1.6 | 1.6 | 0.00 | 0.00 | 0.00 | 71 | 1018.8 |
| 20260510181314 | 25 | 255 | 0.0 | 1.6 | 0.00 | 0.00 | 0.00 | 74 | 1018.8 |
| 20260510180814 | 23 | 352 | 1.6 | 4.8 | 0.00 | 0.00 | 0.00 | 77 | 1018.8 |
| 20260510180300 | 24 | 224 | 1.6 | 4.8 | 0.00 | 0.00 | 0.00 | 76 | 1018.9 |
| 20260510175800 | 24 | 231 | 0.0 | 1.6 | 0.00 | 0.00 | 0.00 | 77 | 1018.9 |
| 20260510175300 | 23 | 295 | 3.2 | 4.8 | 0.00 | 0.00 | 0.00 | 78 | 1019.0 |
| 20260510174800 | 23 | 222 | 1.6 | 3.2 | 0.00 | 0.00 | 0.00 | 79 | 1019.1 |
| 20260510174520 | 23 | 248 | 1.6 | 3.2 | 0.00 | 0.00 | 0.00 | 80 | 1019.2 |
| 20260510174021 | 22 | 258 | 3.2 | 3.2 | 0.00 | 0.00 | 0.00 | 81 | 1019.6 |
| 20260510173259 | 22 | 260 | 0.0 | 1.6 | 0.00 | 0.00 | 0.00 | 81 | 1019.6 |
| 20260510172759 | 22 | 225 | 0.0 | 1.6 | 0.00 | 0.00 | 0.00 | 84 | 1019.6 |
| 20260510172259 | 22 | 258 | 1.6 | 3.2 | 0.00 | 0.00 | 0.00 | 84 | 1019.6 |
| 20260510172021 | 21 | 276 | 0.0 | 1.6 | 0.00 | 0.00 | 0.00 | 83 | 1019.8 |
| 20260510171259 | 21 | 254 | 0.0 | 1.6 | 0.00 | 0.00 | 0.00 | 85 | 1019.7 |
| 20260510170759 | 21 | 236 | 0.0 | 1.6 | 0.00 | 0.00 | 0.00 | 86 | 1019.8 |
| 20260510170245 | 20 | 235 | 0.0 | 3.2 | 0.00 | 0.00 | 0.00 | 88 | 1020.0 |
| 20260510170230 | 21 | 242 | 3.2 | 3.2 | 0.00 | 0.00 | 0.00 | 85 | 1020.0 |
| 20260510165245 | 20 | 259 | 0.0 | 0.0 | 0.00 | 0.00 | 0.00 | 87 | 1020.0 |
| 20260510164745 | 20 | 273 | 1.6 | 1.6 | 0.00 | 0.00 | 0.00 | 88 | 1020.2 |
| 20260510164245 | 20 | 221 | 1.6 | 1.6 | 0.00 | 0.00 | 0.00 | 89 | 1020.0 |
| 20260510163745 | 20 | 261 | 1.6 | 4.8 | 0.00 | 0.00 | 0.00 | 88 | 1020.2 |
| 20260510163244 | 20 | 259 | 0.0 | 1.6 | 0.00 | 0.00 | 0.00 | 90 | 1019.9 |
| 20260510162729 | 20 | 226 | 0.0 | 1.6 | 0.00 | 0.00 | 0.00 | 87 | 1019.9 |
| 20260510162229 | 20 | 251 | 0.0 | 1.6 | 0.00 | 0.00 | 0.00 | 89 | 1019.9 |
| 20260510161729 | 20 | 217 | 1.6 | 4.8 | 0.00 | 0.00 | 0.00 | 90 | 1019.8 |
| 20260510161229 | 20 | 266 | 1.6 | 3.2 | 0.00 | 0.00 | 0.00 | 89 | 1019.6 |
| 20260510160714 | 20 | 276 | 1.6 | 1.6 | 0.00 | 0.00 | 0.00 | 90 | 1019.9 |
| 20260510160200 | 20 | 257 | 0.0 | 0.0 | 0.00 | 0.00 | 0.00 | 90 | 1019.9 |
| 20260510155700 | 21 | 268 | 1.6 | 1.6 | 0.00 | 0.00 | 0.00 | 90 | 1020.0 |
| 20260510155200 | 20 | 249 | 0.0 | 0.0 | 0.00 | 0.00 | 0.00 | 89 | 1019.9 |
| 20260510154700 | 20 | 239 | 0.0 | 0.0 | 0.00 | 0.00 | 0.00 | 91 | 1019.9 |
| 20260510154159 | 20 | 268 | 0.0 | 3.2 | 0.00 | 0.00 | 0.00 | 91 | 1019.7 |
| 20260510153700 | 20 | 231 | 0.0 | 0.0 | 0.00 | 0.00 | 0.00 | 90 | 1019.8 |
| 20260510153159 | 20 | 256 | 0.0 | 0.0 | 0.00 | 0.00 | 0.00 | 91 | 1019.8 |
| 20260510152659 | 20 | 248 | 0.0 | 0.0 | 0.00 | 0.00 | 0.00 | 90 | 1019.7 |
| 20260510152159 | 20 | 261 | 0.0 | 1.6 | 0.00 | 0.00 | 0.00 | 90 | 1019.9 |
| 20260510151659 | 20 | 206 | 1.6 | 1.6 | 0.00 | 0.00 | 0.00 | 90 | 1019.9 |
| 20260510151645 | 20 | 245 | 0.0 | 0.0 | 0.00 | 0.00 | 0.00 | 91 | 1019.9 |
| 20260510150659 | 19 | 226 | 0.0 | 0.0 | 0.00 | 0.00 | 0.00 | 93 | 1019.8 |
| 20260510150159 | 19 | 258 | 0.0 | 0.0 | 0.00 | 0.00 | 0.00 | 93 | 1019.9 |
| 20260510145659 | 18 | 238 | 1.6 | 1.6 | 0.00 | 0.00 | 0.00 | 94 | 1020.1 |
| 20260510145419 | 18 | 257 | 0.0 | 1.6 | 0.00 | 0.00 | 0.00 | 97 | 1019.9 |
| 20260510144659 | 18 | 241 | 0.0 | 1.6 | 0.00 | 0.00 | 0.00 | 99 | 1019.9 |
| 20260510144159 | 18 | 271 | 1.6 | 1.6 | 0.00 | 0.00 | 0.00 | 99 | 1020.1 |
| 20260510143659 | 18 | 258 | 0.0 | 0.0 | 0.00 | 0.00 | 0.00 | 99 | 1019.9 |
| 20260510143159 | 18 | 252 | 0.0 | 0.0 | 0.00 | 0.00 | 0.00 | 99 | 1020.1 |
| 20260510142659 | 17 | 262 | 0.0 | 0.0 | 0.00 | 0.00 | 0.00 | 99 | 1020.0 |
| 20260510142159 | 17 | 250 | 0.0 | 0.0 | 0.00 | 0.00 | 0.00 | 99 | 1020.1 |
| 20260510141658 | 17 | 233 | 0.0 | 1.6 | 0.00 | 0.00 | 0.00 | 99 | 1020.3 |
| 20260510141146 | 17 | 241 | 0.0 | 1.6 | 0.00 | 0.00 | 0.00 | 99 | 1020.2 |
| 20260510140644 | 17 | 242 | 0.0 | 1.6 | 0.00 | 0.00 | 0.00 | 99 | 1020.0 |
| 20260510140143 | 17 | 238 | 0.0 | 0.0 | 0.00 | 0.00 | 0.00 | 99 | 1020.1 |
| 20260510135643 | 17 | 236 | 1.6 | 3.2 | 0.00 | 0.00 | 0.00 | 99 | 1020.0 |
| 20260510135143 | 17 | 245 | 0.0 | 0.0 | 0.00 | 0.00 | 0.00 | 99 | 1020.1 |
| 20260510134643 | 17 | 233 | 0.0 | 0.0 | 0.00 | 0.00 | 0.00 | 99 | 1020.0 |
| 20260510134143 | 17 | 245 | 0.0 | 0.0 | 0.00 | 0.00 | 0.00 | 99 | 1020.2 |
| 20260510133643 | 17 | 251 | 0.0 | 1.6 | 0.00 | 0.00 | 0.00 | 99 | 1020.0 |
| 20260510133143 | 17 | 262 | 0.0 | 0.0 | 0.00 | 0.00 | 0.00 | 99 | 1019.9 |
| 20260510132643 | 17 | 241 | 0.0 | 0.0 | 0.00 | 0.00 | 0.00 | 99 | 1020.0 |
| 20260510132404 | 17 | 276 | 1.6 | 1.6 | 0.00 | 0.00 | 0.00 | 99 | 1019.8 |
| 20260510131642 | 17 | 252 | 0.0 | 0.0 | 0.00 | 0.00 | 0.00 | 99 | 1019.8 |
| 20260510131402 | 17 | 252 | 0.0 | 0.0 | 0.00 | 0.00 | 0.00 | 99 | 1019.7 |
| 20260510130642 | 17 | 252 | 0.0 | 0.0 | 0.00 | 0.00 | 0.00 | 99 | 1019.8 |
| 20260510130348 | 17 | 252 | 0.0 | 0.0 | 0.00 | 0.00 | 0.00 | 99 | 1019.6 |
| 20260510130114 | 16 | 248 | 0.0 | 0.0 | 0.00 | 0.00 | 0.00 | 99 | 1019.9 |
| 20260510125128 | 16 | 249 | 0.0 | 1.6 | 0.00 | 0.00 | 0.00 | 99 | 1019.6 |
| 20260510124628 | 16 | 246 | 0.0 | 0.0 | 0.00 | 0.00 | 0.00 | 99 | 1019.4 |
| 20260510124128 | 16 | 245 | 0.0 | 0.0 | 0.00 | 0.00 | 0.00 | 99 | 1019.4 |
| 20260510123849 | 16 | 252 | 0.0 | 0.0 | 0.00 | 0.00 | 0.00 | 99 | 1019.5 |
| 20260510123128 | 16 | 240 | 1.6 | 1.6 | 0.00 | 0.00 | 0.00 | 99 | 1019.6 |
| 20260510122628 | 16 | 266 | 0.0 | 0.0 | 0.00 | 0.00 | 0.00 | 99 | 1019.4 |
| 20260510122128 | 16 | 265 | 0.0 | 1.6 | 0.00 | 0.00 | 0.00 | 99 | 1019.5 |
| 20260510121628 | 16 | 246 | 0.0 | 1.6 | 0.00 | 0.00 | 0.00 | 99 | 1019.2 |
| 20260510121128 | 16 | 233 | 0.0 | 0.0 | 0.00 | 0.00 | 0.00 | 99 | 1019.1 |
| 20260510120627 | 16 | 264 | 0.0 | 0.0 | 0.00 | 0.00 | 0.00 | 99 | 1019.1 |
| 20260510120127 | 16 | 250 | 0.0 | 0.0 | 0.00 | 0.00 | 0.00 | 99 | 1019.0 |
| 20260510115849 | 16 | 246 | 0.0 | 0.0 | 0.00 | 0.00 | 0.00 | 99 | 1019.1 |
| 20260510115349 | 16 | 265 | 0.0 | 1.6 | 0.00 | 0.00 | 0.00 | 99 | 1018.7 |
| 20260510114627 | 16 | 236 | 0.0 | 0.0 | 0.00 | 0.00 | 0.00 | 99 | 1018.9 |
| 20260510114127 | 16 | 236 | 0.0 | 0.0 | 0.00 | 0.00 | 0.00 | 99 | 1018.7 |
| 20260510113627 | 16 | 236 | 0.0 | 0.0 | 0.00 | 0.00 | 0.00 | 99 | 1018.6 |
| 20260510113127 | 16 | 235 | 0.0 | 0.0 | 0.00 | 0.00 | 0.00 | 99 | 1018.2 |
| 20260510112627 | 16 | 234 | 0.0 | 0.0 | 0.00 | 0.00 | 0.00 | 99 | 1018.0 |
| 20260510112127 | 16 | 224 | 0.0 | 1.6 | 0.00 | 0.00 | 0.00 | 99 | 1018.1 |
| 20260510111627 | 16 | 249 | 0.0 | 1.6 | 0.00 | 0.00 | 0.00 | 99 | 1018.0 |
| 20260510111127 | 16 | 224 | 0.0 | 0.0 | 0.00 | 0.00 | 0.00 | 99 | 1017.9 |
| 20260510110627 | 16 | 251 | 0.0 | 0.0 | 0.00 | 0.00 | 0.00 | 99 | 1017.6 |
| 20260510110347 | 16 | 251 | 0.0 | 0.0 | 0.00 | 0.00 | 0.00 | 99 | 1017.7 |
| 20260510105848 | 16 | 253 | 0.0 | 0.0 | 0.00 | 0.00 | 0.00 | 99 | 1017.7 |
| 20260510105111 | 16 | 244 | 0.0 | 0.0 | 0.00 | 0.00 | 0.00 | 99 | 1017.8 |
| 20260510104611 | 16 | 246 | 0.0 | 0.0 | 0.00 | 0.00 | 0.00 | 99 | 1017.7 |
| 20260510104111 | 16 | 244 | 0.0 | 1.6 | 0.00 | 0.00 | 0.00 | 99 | 1017.7 |
| 20260510103556 | 16 | 225 | 0.0 | 3.2 | 0.00 | 0.00 | 0.00 | 99 | 1017.2 |
| 20260510103056 | 16 | 224 | 1.6 | 1.6 | 0.00 | 0.00 | 0.00 | 99 | 1017.1 |
| 20260510102556 | 16 | 257 | 0.0 | 1.6 | 0.00 | 0.00 | 0.00 | 99 | 1017.2 |
| 20260510102056 | 16 | 257 | 0.0 | 1.6 | 0.00 | 0.00 | 0.00 | 99 | 1017.1 |
| 20260510101556 | 16 | 216 | 0.0 | 0.0 | 0.00 | 0.00 | 0.00 | 99 | 1017.0 |
| 20260510101316 | 16 | 216 | 0.0 | 0.0 | 0.00 | 0.00 | 0.00 | 99 | 1017.4 |
| 20260510100556 | 16 | 216 | 0.0 | 0.0 | 0.00 | 0.00 | 0.00 | 99 | 1017.2 |
| 20260510100041 | 16 | 216 | 0.0 | 0.0 | 0.00 | 0.00 | 0.00 | 99 | 1016.9 |
| 20260510095541 | 16 | 216 | 0.0 | 0.0 | 0.00 | 0.00 | 0.00 | 99 | 1016.9 |
| 20260510095026 | 16 | 216 | 0.0 | 0.0 | 0.00 | 0.00 | 0.00 | 99 | 1016.9 |
| 20260510094526 | 16 | 216 | 0.0 | 0.0 | 0.00 | 0.00 | 0.00 | 99 | 1016.5 |
| 20260510094026 | 16 | 215 | 0.0 | 0.0 | 0.00 | 0.00 | 0.00 | 99 | 1016.8 |
| 20260510093526 | 16 | 215 | 0.0 | 0.0 | 0.00 | 0.00 | 0.00 | 99 | 1016.7 |
| 20260510093026 | 16 | 215 | 0.0 | 0.0 | 0.00 | 0.00 | 0.00 | 99 | 1016.6 |
| 20260510092526 | 15 | 215 | 0.0 | 0.0 | 0.00 | 0.00 | 0.00 | 99 | 1016.6 |
| 20260510092026 | 15 | 215 | 0.0 | 0.0 | 0.00 | 0.00 | 0.00 | 99 | 1016.5 |
| 20260510091511 | 15 | 215 | 0.0 | 0.0 | 0.00 | 0.00 | 0.00 | 99 | 1016.4 |
| 20260510091010 | 15 | 215 | 0.0 | 0.0 | 0.00 | 0.00 | 0.00 | 99 | 1016.6 |
| 20260510090510 | 15 | 215 | 0.0 | 0.0 | 0.00 | 0.00 | 0.00 | 99 | 1016.5 |
| 20260510085956 | 15 | 215 | 0.0 | 0.0 | 0.00 | 0.00 | 0.00 | 99 | 1016.4 |
| 20260510085456 | 15 | 215 | 0.0 | 0.0 | 0.00 | 0.00 | 0.00 | 99 | 1016.4 |
| 20260510085218 | 15 | 215 | 0.0 | 0.0 | 0.00 | 0.00 | 0.00 | 99 | 1016.3 |
| 20260510084456 | 15 | 215 | 0.0 | 0.0 | 0.00 | 0.00 | 0.00 | 99 | 1016.2 |
| 20260510083956 | 15 | 215 | 0.0 | 0.0 | 0.00 | 0.00 | 0.00 | 99 | 1016.3 |
| 20260510083456 | 15 | 215 | 0.0 | 0.0 | 0.00 | 0.00 | 0.00 | 99 | 1016.2 |
| 20260510082956 | 15 | 215 | 0.0 | 0.0 | 0.00 | 0.00 | 0.00 | 99 | 1016.2 |
| 20260510082456 | 15 | 215 | 0.0 | 0.0 | 0.00 | 0.00 | 0.00 | 99 | 1016.5 |
| 20260510081956 | 15 | 215 | 0.0 | 0.0 | 0.00 | 0.00 | 0.00 | 99 | 1016.3 |
| 20260510081942 | 15 | 215 | 0.0 | 0.0 | 0.00 | 0.00 | 0.00 | 99 | 1015.9 |
| 20260510081214 | 15 | 215 | 0.0 | 0.0 | 0.00 | 0.00 | 0.00 | 99 | 1016.1 |
| 20260510080455 | 15 | 216 | 0.0 | 0.0 | 0.00 | 0.00 | 0.00 | 99 | 1016.0 |
| 20260510075955 | 16 | 216 | 0.0 | 0.0 | 0.00 | 0.00 | 0.00 | 99 | 1015.9 |
| 20260510075717 | 16 | 216 | 0.0 | 0.0 | 0.00 | 0.00 | 0.00 | 99 | 1016.0 |
| 20260510074955 | 16 | 216 | 0.0 | 0.0 | 0.00 | 0.00 | 0.00 | 99 | 1015.8 |
| 20260510074455 | 16 | 216 | 0.0 | 0.0 | 0.00 | 0.00 | 0.00 | 99 | 1015.8 |
| 20260510074441 | 16 | 216 | 0.0 | 0.0 | 0.00 | 0.00 | 0.00 | 99 | 1016.0 |
| 20260510073717 | 16 | 216 | 0.0 | 0.0 | 0.00 | 0.00 | 0.00 | 99 | 1015.8 |
| 20260510072955 | 16 | 215 | 0.0 | 0.0 | 0.00 | 0.00 | 0.00 | 99 | 1015.7 |
| 20260510072455 | 16 | 228 | 0.0 | 1.6 | 0.00 | 0.00 | 0.00 | 99 | 1016.0 |
| 20260510072216 | 16 | 248 | 0.0 | 0.0 | 0.00 | 0.00 | 0.00 | 99 | 1016.1 |
| 20260510071455 | 16 | 250 | 0.0 | 0.0 | 0.00 | 0.00 | 0.00 | 99 | 1016.1 |
| 20260510070955 | 16 | 250 | 0.0 | 0.0 | 0.00 | 0.00 | 0.00 | 99 | 1016.0 |
| 20260510070455 | 16 | 251 | 0.0 | 0.0 | 0.00 | 0.00 | 0.00 | 99 | 1015.9 |
| 20260510065955 | 16 | 250 | 0.0 | 0.0 | 0.00 | 0.00 | 0.00 | 99 | 1016.1 |
| 20260510065454 | 16 | 251 | 0.0 | 0.0 | 0.00 | 0.00 | 0.00 | 99 | 1016.2 |
| 20260510064954 | 16 | 251 | 0.0 | 0.0 | 0.00 | 0.00 | 0.00 | 99 | 1016.1 |
| 20260510064454 | 16 | 251 | 0.0 | 0.0 | 0.00 | 0.00 | 0.00 | 99 | 1016.1 |
| 20260510063954 | 16 | 251 | 0.0 | 0.0 | 0.00 | 0.00 | 0.00 | 99 | 1016.3 |
| 20260510062454 | 15 | 251 | 0.0 | 0.0 | 0.00 | 0.00 | 0.00 | 99 | 1016.4 |
| 20260510061954 | 15 | 251 | 0.0 | 0.0 | 0.00 | 0.00 | 0.00 | 99 | 1016.5 |
| 20260510061716 | 15 | 251 | 0.0 | 0.0 | 0.00 | 0.00 | 0.00 | 99 | 1016.5 |
| 20260510060954 | 15 | 251 | 0.0 | 0.0 | 0.00 | 0.00 | 0.00 | 99 | 1016.4 |
| 20260510060454 | 15 | 251 | 0.0 | 0.0 | 0.00 | 0.00 | 0.00 | 99 | 1016.5 |
| 20260510055939 | 15 | 251 | 0.0 | 0.0 | 0.00 | 0.00 | 0.00 | 99 | 1016.6 |
| 20260510055439 | 15 | 251 | 0.0 | 0.0 | 0.00 | 0.00 | 0.00 | 99 | 1016.4 |
| 20260510054939 | 15 | 251 | 0.0 | 0.0 | 0.00 | 0.00 | 0.00 | 99 | 1016.3 |
| 20260510054439 | 15 | 251 | 0.0 | 0.0 | 0.00 | 0.00 | 0.00 | 99 | 1016.6 |
| 20260510053939 | 15 | 251 | 0.0 | 0.0 | 0.00 | 0.00 | 0.00 | 99 | 1016.6 |
| 20260510053439 | 15 | 251 | 0.0 | 0.0 | 0.00 | 0.00 | 0.00 | 99 | 1016.6 |
| 20260510052939 | 15 | 251 | 0.0 | 0.0 | 0.00 | 0.00 | 0.00 | 99 | 1016.5 |
| 20260510052658 | 15 | 251 | 0.0 | 0.0 | 0.00 | 0.00 | 0.00 | 99 | 1016.6 |
| 20260510051939 | 15 | 251 | 0.0 | 0.0 | 0.00 | 0.00 | 0.00 | 99 | 1016.4 |
| 20260510051700 | 15 | 251 | 0.0 | 0.0 | 0.00 | 0.00 | 0.00 | 99 | 1016.7 |
| 20260510050939 | 15 | 251 | 0.0 | 0.0 | 0.00 | 0.00 | 0.00 | 99 | 1016.6 |
| 20260510050439 | 15 | 251 | 0.0 | 0.0 | 0.00 | 0.00 | 0.00 | 99 | 1016.7 |
| 20260510045925 | 16 | 251 | 0.0 | 0.0 | 0.00 | 0.00 | 0.03 | 99 | 1016.6 |
| 20260510045424 | 16 | 251 | 0.0 | 0.0 | 0.00 | 0.00 | 0.03 | 99 | 1016.6 |
| 20260510044924 | 16 | 251 | 0.0 | 0.0 | 0.00 | 0.00 | 0.03 | 99 | 1016.8 |
| 20260510044424 | 16 | 251 | 0.0 | 0.0 | 0.00 | 0.00 | 0.03 | 99 | 1016.6 |
| 20260510043924 | 16 | 251 | 0.0 | 0.0 | 0.00 | 0.00 | 0.03 | 99 | 1016.5 |
| 20260510043424 | 16 | 251 | 0.0 | 0.0 | 0.00 | 0.00 | 0.03 | 99 | 1016.6 |
| 20260510042924 | 16 | 251 | 0.0 | 0.0 | 0.00 | 0.00 | 0.03 | 99 | 1016.7 |
| 20260510042645 | 16 | 251 | 0.0 | 0.0 | 0.00 | 0.00 | 0.03 | 99 | 1016.8 |
| 20260510041909 | 16 | 251 | 0.0 | 0.0 | 0.00 | 0.00 | 0.03 | 99 | 1016.7 |
| 20260510041409 | 16 | 251 | 0.0 | 0.0 | 0.00 | 0.00 | 0.03 | 99 | 1016.8 |
| 20260510040909 | 16 | 251 | 0.0 | 0.0 | 0.00 | 0.00 | 0.03 | 99 | 1016.8 |
| 20260510040409 | 16 | 251 | 0.0 | 0.0 | 0.00 | 0.00 | 0.03 | 99 | 1016.5 |
| 20260510035854 | 16 | 251 | 0.0 | 0.0 | 0.00 | 0.00 | 0.03 | 99 | 1016.8 |
| 20260510035354 | 16 | 251 | 0.0 | 0.0 | 0.00 | 0.00 | 0.03 | 99 | 1016.8 |
| 20260510034854 | 16 | 251 | 0.0 | 0.0 | 0.00 | 0.00 | 0.03 | 99 | 1016.6 |
| 20260510034354 | 16 | 251 | 0.0 | 0.0 | 0.00 | 0.00 | 0.03 | 99 | 1016.7 |
| 20260510033854 | 16 | 251 | 0.0 | 0.0 | 0.00 | 0.00 | 0.03 | 99 | 1016.6 |
| 20260510033354 | 16 | 251 | 0.0 | 0.0 | 0.00 | 0.00 | 0.03 | 99 | 1016.9 |
| 20260510032854 | 16 | 251 | 0.0 | 0.0 | 0.00 | 0.00 | 0.03 | 99 | 1017.0 |
| 20260510032354 | 16 | 251 | 0.0 | 0.0 | 0.00 | 0.00 | 0.03 | 99 | 1016.6 |
| 20260510031854 | 16 | 251 | 0.0 | 0.0 | 0.00 | 0.00 | 0.03 | 99 | 1016.7 |
| 20260510031354 | 16 | 251 | 0.0 | 0.0 | 0.00 | 0.00 | 0.03 | 99 | 1016.7 |
| 20260510030854 | 17 | 251 | 0.0 | 0.0 | 0.00 | 0.00 | 0.03 | 99 | 1016.6 |
| 20260510030340 | 17 | 251 | 0.0 | 0.0 | 0.00 | 0.00 | 0.03 | 99 | 1016.6 |
| 20260510025824 | 17 | 251 | 0.0 | 0.0 | 0.00 | 0.00 | 0.03 | 99 | 1016.6 |
| 20260510025324 | 17 | 251 | 0.0 | 0.0 | 0.00 | 0.00 | 0.03 | 99 | 1016.6 |
| 20260510024824 | 17 | 251 | 0.0 | 0.0 | 0.00 | 0.00 | 0.03 | 99 | 1016.6 |
| 20260510024324 | 17 | 252 | 0.0 | 0.0 | 0.00 | 0.00 | 0.03 | 99 | 1016.7 |
| 20260510023824 | 17 | 252 | 0.0 | 0.0 | 0.00 | 0.00 | 0.03 | 99 | 1016.5 |
| 20260510023323 | 17 | 252 | 0.0 | 0.0 | 0.00 | 0.00 | 0.03 | 99 | 1016.5 |
| 20260510023046 | 17 | 252 | 0.0 | 0.0 | 0.00 | 0.00 | 0.03 | 99 | 1016.4 |
| 20260510022531 | 17 | 251 | 0.0 | 0.0 | 0.00 | 0.00 | 0.03 | 99 | 1016.4 |
| 20260510021808 | 17 | 251 | 0.0 | 0.0 | 0.00 | 0.00 | 0.03 | 99 | 1016.3 |
| 20260510021308 | 17 | 252 | 0.0 | 0.0 | 0.00 | 0.00 | 0.03 | 99 | 1016.0 |
| 20260510021029 | 17 | 252 | 0.0 | 0.0 | 0.00 | 0.00 | 0.03 | 99 | 1016.0 |
| 20260510020254 | 17 | 252 | 0.0 | 0.0 | 0.00 | 0.00 | 0.03 | 99 | 1015.9 |
| 20260510020015 | 17 | 252 | 0.0 | 0.0 | 0.00 | 0.00 | 0.03 | 99 | 1015.8 |
| 20260510015516 | 17 | 252 | 0.0 | 0.0 | 0.00 | 0.00 | 0.03 | 99 | 1015.8 |
| 20260510014754 | 17 | 253 | 0.0 | 0.0 | 0.00 | 0.00 | 0.03 | 99 | 1015.5 |
| 20260510014514 | 17 | 252 | 0.0 | 0.0 | 0.00 | 0.00 | 0.03 | 99 | 1015.7 |
| 20260510013754 | 18 | 252 | 0.0 | 0.0 | 0.00 | 0.00 | 0.03 | 99 | 1015.2 |
| 20260510013254 | 18 | 263 | 0.0 | 0.0 | 0.00 | 0.00 | 0.03 | 99 | 1015.2 |
| 20260510012754 | 18 | 231 | 0.0 | 0.0 | 0.00 | 0.00 | 0.03 | 99 | 1015.3 |
| 20260510012254 | 18 | 231 | 0.0 | 0.0 | 0.00 | 0.00 | 0.03 | 99 | 1015.1 |
| 20260510011754 | 18 | 231 | 0.0 | 0.0 | 0.00 | 0.00 | 0.03 | 99 | 1015.0 |
| 20260510011254 | 18 | 231 | 0.0 | 0.0 | 0.00 | 0.00 | 0.03 | 99 | 1015.1 |
| 20260510010754 | 18 | 230 | 0.0 | 0.0 | 0.00 | 0.00 | 0.03 | 99 | 1015.0 |
| 20260510010239 | 18 | 230 | 0.0 | 0.0 | 0.00 | 0.00 | 0.03 | 99 | 1014.7 |
| 20260510005739 | 18 | 230 | 0.0 | 1.6 | 0.00 | 0.00 | 0.03 | 99 | 1014.7 |
| 20260510005239 | 18 | 239 | 0.0 | 0.0 | 0.00 | 0.00 | 0.03 | 99 | 1014.8 |
| 20260510004739 | 18 | 232 | 0.0 | 0.0 | 0.00 | 0.00 | 0.03 | 99 | 1014.5 |
| 20260510004239 | 18 | 232 | 0.0 | 0.0 | 0.00 | 0.00 | 0.03 | 99 | 1014.7 |
| 20260510003739 | 18 | 232 | 0.0 | 1.6 | 0.00 | 0.00 | 0.03 | 98 | 1014.7 |
| 20260510003239 | 18 | 246 | 0.0 | 0.0 | 0.00 | 0.00 | 0.03 | 98 | 1014.9 |
| 20260510003000 | 18 | 247 | 0.0 | 0.0 | 0.00 | 0.00 | 0.03 | 98 | 1014.8 |
| 20260510002239 | 18 | 252 | 0.0 | 1.6 | 0.00 | 0.00 | 0.03 | 98 | 1014.7 |
| 20260510001739 | 18 | 221 | 0.0 | 1.6 | 0.00 | 0.00 | 0.03 | 97 | 1014.7 |
| 20260510001239 | 18 | 233 | 0.0 | 0.0 | 0.00 | 0.00 | 0.03 | 97 | 1014.7 |
| 20260510000739 | 18 | 232 | 0.0 | 0.0 | 0.00 | 0.00 | 0.03 | 97 | 1014.5 |
| 20260510000226 | 18 | 232 | 0.0 | 0.0 | 0.00 | 0.00 | 0.03 | 96 | 1014.3 |
| 20260509235724 | 18 | 250 | 0.0 | 0.0 | 0.00 | 0.00 | 0.03 | 96 | 1014.3 |
| 20260509235224 | 18 | 250 | 0.0 | 0.0 | 0.00 | 0.00 | 0.03 | 96 | 1014.0 |
| 20260509234724 | 19 | 250 | 0.0 | 0.0 | 0.00 | 0.00 | 0.03 | 96 | 1013.9 |
| 20260509234224 | 19 | 251 | 0.0 | 0.0 | 0.00 | 0.00 | 0.03 | 95 | 1014.1 |
| 20260509233724 | 19 | 251 | 0.0 | 0.0 | 0.00 | 0.00 | 0.03 | 95 | 1013.7 |
| 20260509233224 | 19 | 251 | 0.0 | 0.0 | 0.00 | 0.00 | 0.03 | 95 | 1014.0 |
| 20260509232943 | 19 | 251 | 0.0 | 0.0 | 0.00 | 0.00 | 0.03 | 95 | 1013.8 |
| 20260509232224 | 19 | 251 | 0.0 | 1.6 | 0.00 | 0.00 | 0.03 | 94 | 1013.8 |
| 20260509231724 | 19 | 250 | 0.0 | 0.0 | 0.00 | 0.00 | 0.03 | 94 | 1013.9 |
| 20260509231446 | 20 | 250 | 0.0 | 0.0 | 0.00 | 0.00 | 0.03 | 93 | 1013.7 |
| 20260509230724 | 20 | 250 | 0.0 | 0.0 | 0.00 | 0.00 | 0.03 | 92 | 1013.8 |
| 20260509230709 | 20 | 251 | 0.0 | 0.0 | 0.00 | 0.00 | 0.03 | 90 | 1013.8 |